Tracking 19490 objects as of 23-Jan-2019
HD Live streaming from Space Station
objects crossing your sky now

FLOCK 3P 25

Track FLOCK 3P 25 now!
10-day predictions
FLOCK 3P 25 is classified as:


NORAD ID: 41964
Int'l Code: 2017-008S
Perigee: 491.9 km
Apogee: 501.5 km
Inclination: 97.4 °
Period: 94.4 minutes
Semi major axis: 6867 km
RCS: Unknown
Launch date: February 15, 2017
Source: United States (US)
Launch site: SRIHARIKOTA (SRI)
aabbcc
Your satellite tracking list
Your tracking list is empty




NASA's NSSDC Master Catalog

Two Line Element Set (TLE):
1 41964U 17008S   19022.92265228 +.00001981 +00000-0 +81251-4 0  9990
2 41964 097.4243 091.2623 0006984 302.3110 057.7451 15.25419945107412
Source of the keplerian elements: AFSPC